WZZ5BT LIPZ-LICA

Flight info

Callsign WZZ5BT
Flight time 1h 16m
Altitude 37000
Route CHI DCT SUXUB DCT GALTI DCT EVINO/N0365F190 M620 ARBUM
Aircraft A321/M-SDE3FGHIRWY/LB1

Departure

Time 2026-04-25 14:39
Airport Venice Marco Polo Airport (LIPZ)

Arrival

Time 2026-04-25 15:56
Airport Lamezia Terme Sant'Eufemia International Airport (LICA)
Time Latitude Longitude Altitude Speed Heading
2026-04-25 14:18 45.50179 12.34069 16 ft 0 kts 312°
2026-04-25 14:31 45.50168 12.34086 17 ft 4 kts 317°
2026-04-25 14:31 45.50147 12.34109 16 ft 4 kts 333°
2026-04-25 14:32 45.50123 12.34120 17 ft 4 kts
2026-04-25 14:32 45.50107 12.34112 17 ft 1 kts 43°
2026-04-25 14:32 45.50105 12.34109 16 ft 0 kts 43°
2026-04-25 14:34 45.50108 12.34113 17 ft 2 kts 43°
2026-04-25 14:34 45.50130 12.34141 17 ft 6 kts 43°
2026-04-25 14:34 45.50170 12.34194 16 ft 10 kts 42°
2026-04-25 14:35 45.50230 12.34271 16 ft 13 kts 42°
2026-04-25 14:35 45.50308 12.34371 17 ft 17 kts 41°
2026-04-25 14:35 45.50402 12.34490 16 ft 20 kts 41°
2026-04-25 14:35 45.50513 12.34629 16 ft 23 kts 42°
2026-04-25 14:36 45.50637 12.34789 16 ft 25 kts 42°
2026-04-25 14:36 45.50771 12.34964 16 ft 28 kts 43°
2026-04-25 14:36 45.50917 12.35155 16 ft 29 kts 41°
2026-04-25 14:36 45.50985 12.35391 18 ft 26 kts 78°
2026-04-25 14:37 45.51094 12.35587 16 ft 26 kts 41°
2026-04-25 14:37 45.51231 12.35762 15 ft 27 kts 42°
2026-04-25 14:37 45.51371 12.35947 16 ft 27 kts 43°
2026-04-25 14:37 45.51515 12.36131 16 ft 28 kts 38°
2026-04-25 14:38 45.51655 12.36311 16 ft 22 kts 43°
2026-04-25 14:38 45.51696 12.36450 16 ft 16 kts 97°
2026-04-25 14:38 45.51625 12.36566 15 ft 16 kts 139°
2026-04-25 14:38 45.51582 12.36561 17 ft 6 kts 220°
2026-04-25 14:39 45.51453 12.36396 16 ft 60 kts 222°
2026-04-25 14:39 45.50958 12.35761 15 ft 128 kts 222°
2026-04-25 14:39 45.50167 12.34748 139 ft 166 kts 220°
2026-04-25 14:39 45.49341 12.33647 913 ft 161 kts 220°
2026-04-25 14:40 45.48515 12.32580 1674 ft 160 kts 221°
2026-04-25 14:40 45.47665 12.31494 2081 ft 172 kts 222°
2026-04-25 14:40 45.46717 12.30286 2266 ft 194 kts 222°
2026-04-25 14:40 45.45641 12.28925 2444 ft 220 kts 221°
2026-04-25 14:41 45.44233 12.27830 2764 ft 246 kts 193°
2026-04-25 14:41 45.42482 12.27902 3358 ft 260 kts 172°
2026-04-25 14:41 45.40688 12.28366 4124 ft 264 kts 172°
2026-04-25 14:41 45.38855 12.28843 4909 ft 269 kts 172°
2026-04-25 14:42 45.36995 12.29326 5650 ft 274 kts 172°
2026-04-25 14:42 45.36386 12.29483 5907 ft 275 kts 172°
2026-04-25 14:42 45.33174 12.29946 7149 ft 280 kts 185°
2026-04-25 14:42 45.31221 12.29801 7914 ft 283 kts 185°
2026-04-25 14:43 45.29277 12.29668 8677 ft 285 kts 185°
2026-04-25 14:43 45.27276 12.29531 9441 ft 289 kts 185°
2026-04-25 14:43 45.25231 12.29392 10175 ft 293 kts 185°
2026-04-25 14:43 45.23124 12.29251 10436 ft 315 kts 185°
2026-04-25 14:44 45.20887 12.29095 10642 ft 336 kts 185°
2026-04-25 14:44 45.18520 12.28930 11187 ft 344 kts 185°
2026-04-25 14:44 45.16113 12.28765 11851 ft 348 kts 185°
2026-04-25 14:44 45.13682 12.28605 12530 ft 352 kts 185°
2026-04-25 14:45 45.11225 12.28442 13213 ft 355 kts 185°
2026-04-25 14:45 45.08739 12.28347 13862 ft 360 kts 179°
2026-04-25 14:45 45.06238 12.28860 14455 ft 366 kts 167°
2026-04-25 14:45 45.03827 12.30073 15073 ft 371 kts 158°
2026-04-25 14:46 45.01447 12.31510 15735 ft 373 kts 159°
2026-04-25 14:46 44.99051 12.32951 16349 ft 376 kts 159°
2026-04-25 14:46 44.96632 12.34401 16965 ft 379 kts 159°
2026-04-25 14:46 44.94185 12.35863 17588 ft 383 kts 159°
2026-04-25 14:47 44.91723 12.37326 18206 ft 386 kts 159°
2026-04-25 14:47 44.90884 12.37822 18419 ft 387 kts 159°
2026-04-25 14:47 44.86734 12.40276 19306 ft 391 kts 159°
2026-04-25 14:47 44.84216 12.41765 19849 ft 394 kts 160°
2026-04-25 14:48 44.81681 12.43262 20386 ft 397 kts 160°
2026-04-25 14:48 44.79127 12.44771 20916 ft 400 kts 160°
2026-04-25 14:48 44.76555 12.46292 21455 ft 403 kts 160°
2026-04-25 14:48 44.73958 12.47825 21978 ft 406 kts 160°
2026-04-25 14:49 44.71349 12.49365 22495 ft 409 kts 160°
2026-04-25 14:49 44.68711 12.50923 22984 ft 412 kts 160°
2026-04-25 14:49 44.66054 12.52487 23459 ft 415 kts 160°
2026-04-25 14:49 44.63375 12.54059 23878 ft 418 kts 160°
2026-04-25 14:50 44.60682 12.55637 24275 ft 421 kts 160°
2026-04-25 14:50 44.57969 12.57227 24671 ft 424 kts 160°
2026-04-25 14:50 44.55237 12.58830 25069 ft 426 kts 160°
2026-04-25 14:50 44.52492 12.60441 25459 ft 429 kts 160°
2026-04-25 14:51 44.49735 12.62060 25847 ft 431 kts 160°
2026-04-25 14:51 44.46959 12.63685 26212 ft 433 kts 160°
2026-04-25 14:51 44.44168 12.65313 26592 ft 436 kts 160°
2026-04-25 14:51 44.41363 12.66945 26965 ft 438 kts 160°
2026-04-25 14:52 44.38543 12.68587 27334 ft 440 kts 160°
2026-04-25 14:52 44.35705 12.70234 27704 ft 443 kts 160°
2026-04-25 14:52 44.32854 12.71884 28069 ft 445 kts 160°
2026-04-25 14:52 44.31923 12.72423 28189 ft 446 kts 160°
2026-04-25 14:53 44.27142 12.75191 28764 ft 449 kts 160°
2026-04-25 14:53 44.24246 12.76870 29117 ft 451 kts 160°
2026-04-25 14:53 44.21342 12.78556 29469 ft 453 kts 159°
2026-04-25 14:53 44.18426 12.80250 29804 ft 455 kts 159°
2026-04-25 14:54 44.15479 12.81959 30135 ft 457 kts 159°
2026-04-25 14:54 44.12533 12.83661 30431 ft 459 kts 159°
2026-04-25 14:54 44.09573 12.85368 30724 ft 461 kts 160°
2026-04-25 14:54 44.06605 12.87077 31022 ft 463 kts 160°
2026-04-25 14:55 44.03630 12.88789 31382 ft 462 kts 160°
2026-04-25 14:55 44.00662 12.90494 31809 ft 460 kts 160°
2026-04-25 14:55 43.97703 12.92190 32223 ft 459 kts 160°
2026-04-25 14:55 43.94758 12.93874 32640 ft 457 kts 160°
2026-04-25 14:56 43.91821 12.95552 33038 ft 456 kts 160°
2026-04-25 14:56 43.88924 12.97205 33436 ft 455 kts 160°
2026-04-25 14:56 43.86002 12.98872 33825 ft 453 kts 160°
2026-04-25 14:56 43.83085 13.00538 34219 ft 451 kts 159°
2026-04-25 14:57 43.80184 13.02195 34554 ft 450 kts 160°
2026-04-25 14:57 43.78259 13.03293 34771 ft 449 kts 160°
2026-04-25 14:57 43.74432 13.05475 35192 ft 449 kts 160°
2026-04-25 14:57 43.71543 13.07121 35504 ft 448 kts 160°
2026-04-25 14:58 43.68656 13.08762 35812 ft 448 kts 160°
2026-04-25 14:58 43.66746 13.09846 36017 ft 447 kts 160°
2026-04-25 14:58 43.63861 13.11483 36336 ft 446 kts 159°
2026-04-25 14:58 43.60987 13.13110 36634 ft 446 kts 159°
2026-04-25 14:59 43.58121 13.14730 36935 ft 445 kts 159°
2026-04-25 14:59 43.55248 13.16351 37028 ft 445 kts 159°
2026-04-25 14:59 43.49532 13.19578 37042 ft 443 kts 159°
2026-04-25 15:00 43.43825 13.22781 37041 ft 443 kts 159°
2026-04-25 15:00 43.38122 13.25990 37044 ft 442 kts 159°
2026-04-25 15:01 43.32426 13.29187 37048 ft 442 kts 159°
2026-04-25 15:01 43.26757 13.32354 37044 ft 443 kts 159°
2026-04-25 15:02 43.21051 13.35539 37049 ft 443 kts 159°
2026-04-25 15:02 43.15343 13.38729 37058 ft 443 kts 159°
2026-04-25 15:03 43.09631 13.41908 37053 ft 443 kts 159°
2026-04-25 15:03 43.03917 13.45068 37065 ft 442 kts 159°
2026-04-25 15:04 42.98197 13.48202 37067 ft 442 kts 159°
2026-04-25 15:04 42.92493 13.51346 37072 ft 441 kts 159°
2026-04-25 15:05 42.86807 13.54496 37068 ft 441 kts 159°
2026-04-25 15:06 42.78325 13.59174 37074 ft 440 kts 159°
2026-04-25 15:06 42.72649 13.62279 37065 ft 440 kts 158°
2026-04-25 15:07 42.66959 13.65388 37077 ft 440 kts 159°
2026-04-25 15:07 42.61288 13.68485 37076 ft 440 kts 159°
2026-04-25 15:08 42.55612 13.71585 37067 ft 440 kts 158°
2026-04-25 15:08 42.49932 13.74692 37063 ft 440 kts 158°
2026-04-25 15:09 42.44239 13.77791 37076 ft 440 kts 158°
2026-04-25 15:09 42.35708 13.82408 37078 ft 439 kts 158°
2026-04-25 15:10 42.30035 13.85478 37074 ft 439 kts 158°
2026-04-25 15:11 42.21526 13.90065 37077 ft 438 kts 158°
2026-04-25 15:11 42.15865 13.93112 37083 ft 438 kts 158°
2026-04-25 15:12 42.07398 13.97660 37071 ft 438 kts 158°
2026-04-25 15:12 42.03609 13.99691 37065 ft 438 kts 158°
2026-04-25 15:13 41.93223 14.05240 37071 ft 438 kts 158°
2026-04-25 15:14 41.87577 14.08328 37078 ft 438 kts 153°
2026-04-25 15:14 41.82121 14.12027 37089 ft 439 kts 153°
2026-04-25 15:15 41.76665 14.15726 37087 ft 439 kts 153°
2026-04-25 15:15 41.71202 14.19394 37090 ft 439 kts 153°
2026-04-25 15:16 41.65735 14.23052 37091 ft 439 kts 153°
2026-04-25 15:16 41.57530 14.28525 37082 ft 439 kts 153°
2026-04-25 15:17 41.49327 14.33990 37085 ft 439 kts 153°
2026-04-25 15:18 41.43856 14.37632 37086 ft 439 kts 153°
2026-04-25 15:18 41.35643 14.43066 37094 ft 439 kts 153°
2026-04-25 15:19 41.32022 14.45457 37094 ft 439 kts 153°
2026-04-25 15:19 41.24710 14.50292 37103 ft 438 kts 152°
2026-04-25 15:20 41.19260 14.53888 37100 ft 436 kts 152°
2026-04-25 15:20 41.13822 14.57466 37105 ft 436 kts 152°
2026-04-25 15:21 41.08392 14.61027 37110 ft 435 kts 152°
2026-04-25 15:21 41.02961 14.64583 37100 ft 434 kts 153°
2026-04-25 15:22 40.97562 14.68095 37088 ft 436 kts 153°
2026-04-25 15:22 40.92098 14.71645 37082 ft 433 kts 154°
2026-04-25 15:23 40.86705 14.75163 37086 ft 436 kts 153°
2026-04-25 15:23 40.81258 14.78709 37101 ft 437 kts 153°
2026-04-25 15:24 40.75808 14.82243 37084 ft 436 kts 153°
2026-04-25 15:24 40.72164 14.84597 37086 ft 436 kts 153°
2026-04-25 15:25 40.64912 14.89282 37090 ft 436 kts 154°
2026-04-25 15:25 40.59219 14.92098 37100 ft 437 kts 159°
2026-04-25 15:26 40.53471 14.94743 37099 ft 438 kts 159°
2026-04-25 15:26 40.47716 14.97395 37098 ft 439 kts 160°
2026-04-25 15:27 40.41944 15.00042 37117 ft 439 kts 159°
2026-04-25 15:28 40.33273 15.04014 37116 ft 440 kts 160°
2026-04-25 15:28 40.27491 15.06663 37113 ft 440 kts 160°
2026-04-25 15:29 40.21708 15.09299 37117 ft 440 kts 160°
2026-04-25 15:29 40.15921 15.11940 37117 ft 440 kts 160°
2026-04-25 15:30 40.12051 15.13703 37122 ft 440 kts 160°
2026-04-25 15:30 40.04333 15.17200 37119 ft 441 kts 159°
2026-04-25 15:31 39.98536 15.19825 36826 ft 442 kts 160°
2026-04-25 15:31 39.95623 15.21148 36200 ft 443 kts 160°
2026-04-25 15:31 39.92705 15.22469 35494 ft 446 kts 160°
2026-04-25 15:31 39.89760 15.23791 34830 ft 448 kts 160°
2026-04-25 15:32 39.86858 15.25091 34365 ft 445 kts 159°
2026-04-25 15:32 39.83942 15.26402 33833 ft 443 kts 159°
2026-04-25 15:32 39.81037 15.27713 33351 ft 439 kts 159°
2026-04-25 15:33 39.75319 15.30306 32351 ft 432 kts 159°
2026-04-25 15:33 39.72547 15.31736 31856 ft 426 kts 152°
2026-04-25 15:33 39.70014 15.33686 31377 ft 420 kts 142°
2026-04-25 15:33 39.67763 15.36068 30898 ft 415 kts 137°
2026-04-25 15:34 39.65581 15.38510 30431 ft 412 kts 137°
2026-04-25 15:34 39.63414 15.40927 29922 ft 410 kts 137°
2026-04-25 15:34 39.61262 15.43319 29459 ft 405 kts 137°
2026-04-25 15:34 39.60539 15.44120 29307 ft 403 kts 137°
2026-04-25 15:35 39.54942 15.50332 28129 ft 393 kts 137°
2026-04-25 15:35 39.52876 15.52624 27703 ft 390 kts 138°
2026-04-25 15:35 39.50821 15.54900 27274 ft 387 kts 138°
2026-04-25 15:36 39.46758 15.59396 26471 ft 382 kts 138°
2026-04-25 15:36 39.44739 15.61622 26073 ft 379 kts 138°
2026-04-25 15:36 39.42737 15.63829 25676 ft 377 kts 138°
2026-04-25 15:37 39.40748 15.66024 25290 ft 374 kts 137°
2026-04-25 15:37 39.38775 15.68203 24891 ft 372 kts 137°
2026-04-25 15:37 39.36819 15.70368 24501 ft 369 kts 137°
2026-04-25 15:37 39.34876 15.72519 24105 ft 367 kts 137°
2026-04-25 15:38 39.33591 15.73940 23833 ft 366 kts 137°
2026-04-25 15:38 39.31666 15.76065 23395 ft 363 kts 137°
2026-04-25 15:38 39.29750 15.78178 22973 ft 360 kts 137°
2026-04-25 15:38 39.27854 15.80261 22559 ft 356 kts 138°
2026-04-25 15:39 39.25974 15.82323 22141 ft 353 kts 138°
2026-04-25 15:39 39.24105 15.84366 21728 ft 350 kts 138°
2026-04-25 15:39 39.22254 15.86386 21313 ft 348 kts 138°
2026-04-25 15:39 39.20416 15.88393 20892 ft 345 kts 137°
2026-04-25 15:40 39.18643 15.90460 20496 ft 342 kts 135°
2026-04-25 15:40 39.17514 15.91870 20208 ft 340 kts 134°
2026-04-25 15:40 39.15292 15.94757 19656 ft 338 kts 133°
2026-04-25 15:40 39.13654 15.96917 19247 ft 336 kts 132°
2026-04-25 15:41 39.12019 15.99064 18834 ft 335 kts 133°
2026-04-25 15:41 39.10382 16.01190 18420 ft 334 kts 132°
2026-04-25 15:41 39.08744 16.03297 17970 ft 332 kts 133°
2026-04-25 15:41 39.07112 16.05383 17561 ft 329 kts 133°
2026-04-25 15:42 39.05492 16.07447 17156 ft 327 kts 133°
2026-04-25 15:42 39.03884 16.09493 16755 ft 324 kts 133°
2026-04-25 15:42 39.02284 16.11527 16354 ft 322 kts 133°
2026-04-25 15:42 39.00692 16.13550 15955 ft 321 kts 133°
2026-04-25 15:43 38.99111 16.15559 15559 ft 319 kts 133°
2026-04-25 15:43 38.97537 16.17557 15164 ft 318 kts 133°
2026-04-25 15:43 38.95968 16.19548 14776 ft 316 kts 133°
2026-04-25 15:43 38.94405 16.21531 14384 ft 315 kts 133°
2026-04-25 15:44 38.92845 16.23511 13995 ft 314 kts 133°
2026-04-25 15:44 38.91295 16.25485 13571 ft 313 kts 131°
2026-04-25 15:44 38.89970 16.27666 13179 ft 308 kts 119°
2026-04-25 15:44 38.88932 16.30052 12801 ft 305 kts 116°
2026-04-25 15:45 38.87916 16.32428 12423 ft 303 kts 116°
2026-04-25 15:45 38.86902 16.34792 12061 ft 301 kts 116°
2026-04-25 15:45 38.85893 16.37138 11681 ft 300 kts 116°
2026-04-25 15:45 38.85225 16.38687 11437 ft 299 kts 116°
2026-04-25 15:46 38.83882 16.41800 10933 ft 298 kts 116°
2026-04-25 15:46 38.82882 16.44121 10570 ft 297 kts 116°
2026-04-25 15:46 38.81885 16.46429 10224 ft 294 kts 116°
2026-04-25 15:46 38.80904 16.48694 10083 ft 287 kts 116°
2026-04-25 15:47 38.79930 16.50938 9907 ft 290 kts 116°
2026-04-25 15:47 38.78972 16.53227 9372 ft 293 kts 111°
2026-04-25 15:47 38.78375 16.55674 9054 ft 284 kts 97°
2026-04-25 15:47 38.78078 16.58159 8550 ft 280 kts 97°
2026-04-25 15:48 38.77836 16.60559 8318 ft 262 kts 88°
2026-04-25 15:48 38.78212 16.62765 7821 ft 250 kts 58°
2026-04-25 15:48 38.79304 16.64441 7566 ft 248 kts 36°
2026-04-25 15:48 38.80880 16.65333 7133 ft 251 kts 11°
2026-04-25 15:49 38.82618 16.65626 6700 ft 256 kts
2026-04-25 15:49 38.84314 16.65069 6485 ft 251 kts 330°
2026-04-25 15:49 38.85546 16.63600 6361 ft 243 kts 302°
2026-04-25 15:49 38.86135 16.61601 6023 ft 244 kts 282°
2026-04-25 15:50 38.86395 16.59405 5350 ft 250 kts 279°
2026-04-25 15:50 38.86632 16.57233 4905 ft 239 kts 279°
2026-04-25 15:50 38.86871 16.55201 4551 ft 223 kts 279°
2026-04-25 15:50 38.87100 16.53296 4262 ft 211 kts 279°
2026-04-25 15:51 38.87320 16.51457 3989 ft 207 kts 278°
2026-04-25 15:51 38.87465 16.50248 3798 ft 206 kts 279°
2026-04-25 15:51 38.87746 16.47888 3457 ft 194 kts 278°
2026-04-25 15:51 38.87945 16.46219 3178 ft 185 kts 277°
2026-04-25 15:52 38.88136 16.44620 2926 ft 177 kts 277°
2026-04-25 15:52 38.88312 16.43138 2712 ft 161 kts 277°
2026-04-25 15:52 38.88477 16.41749 2518 ft 154 kts 277°
2026-04-25 15:52 38.88632 16.40435 2317 ft 148 kts 277°
2026-04-25 15:53 38.88787 16.39124 2154 ft 146 kts 277°
2026-04-25 15:53 38.88935 16.37875 1954 ft 140 kts 276°
2026-04-25 15:53 38.89081 16.36644 1762 ft 139 kts 277°
2026-04-25 15:53 38.89225 16.35418 1570 ft 139 kts 277°
2026-04-25 15:54 38.89369 16.34206 1369 ft 135 kts 276°
2026-04-25 15:54 38.89509 16.33012 1180 ft 134 kts 277°
2026-04-25 15:54 38.89648 16.31830 1011 ft 133 kts 277°
2026-04-25 15:54 38.89786 16.30658 823 ft 134 kts 277°
2026-04-25 15:55 38.89921 16.29485 637 ft 134 kts 278°
2026-04-25 15:55 38.90062 16.28307 484 ft 133 kts 278°
2026-04-25 15:55 38.90199 16.27140 295 ft 132 kts 276°
2026-04-25 15:55 38.90339 16.25970 99 ft 132 kts 275°
2026-04-25 15:56 38.90458 16.24899 36 ft 101 kts 279°
2026-04-25 15:56 38.90535 16.24229 27 ft 56 kts 279°
2026-04-25 15:56 38.90581 16.23849 30 ft 38 kts 279°
2026-04-25 15:56 38.90672 16.23578 34 ft 28 kts 307°
2026-04-25 15:57 38.90748 16.23485 33 ft 13 kts 337°
2026-04-25 15:57 38.90836 16.23518 32 ft 15 kts 60°
2026-04-25 15:57 38.90831 16.23654 32 ft 16 kts 101°
2026-04-25 15:57 38.90812 16.23805 32 ft 18 kts 98°
2026-04-25 15:58 38.90795 16.23969 32 ft 19 kts 97°
2026-04-25 15:58 38.90779 16.24130 32 ft 16 kts 90°
2026-04-25 15:58 38.90830 16.24260 32 ft 17 kts 79°
2026-04-25 15:58 38.90817 16.24383 32 ft 10 kts 99°
2026-04-25 15:59 38.90856 16.24435 32 ft 7 kts
2026-04-25 15:59 38.90864 16.24437 32 ft 2 kts 12°
2026-04-25 15:59 38.90876 16.24451 31 ft 3 kts 52°
2026-04-25 15:59 38.90879 16.24457 31 ft 0 kts 51°